SCP
0 0 0 0 0 0 0 0 0 0 0 -0 0 0 0 0 0 -0 -0 0 0 0 0 0 0 0 0 0 0 0 0 0 0 0 0 0 0 0 0 0 0 0 0 0
0 0 0 0 0 0 0 0 0 0 0 -0 0 0 0 0 0 0 0 0 -0 0 0 0 0 0 0 0 0 0 0 0 0 0 0 0 0 0 0 0 0 0 0 0
0 0 0 0 0 0 0 0 0 0 0 0 0 0 0 0 0 0 -0 0 0 0 0 0 0 0 0 0 0 0 0 0 0 0 0 0 0 0 0 0 0 0 0 0
0 0 0 0 0 0 0 0 0 0 0 0 0 0 0 0 0 -0 0 0 0 0 0 0 0 0 0 0 0 0 0 0 0 0 0 0 0 0 0 0 0 0 0 0
0 0 0 0 0 0 0 0 0 -0 -0 -0 -0 -0 -0 0 0 0 0 0 0 0 0 0 0 0 0 0 0 0 0 0 0 0 0 0 0 0 0 0 0 0 0 0
0 0 0 0 0 0 0 0 0 0 0 -0 0 0 0 0 0 0 0 0 0 0 0 0 0 0 0 0 0 0 0 0 0 0 0 0 0 0 0 0 0 0 0 0
0 0 0 0 0 -0 0 0 0 0 0 -0 0 0 0 0 0 0 0 0 0 0 0 0 0 0 0 0 0 0 0 0 0 0 0 0 0 0 0 0 0 0 0 0
0 0 0 0 0 0 0 -0 -0 -0 -0 -0 0 0 0 0 0 0 0 0 0 0 0 0 0 0 0 0 0 0 0 0 0 0 0 0 0 0 0 0 0 0 0 0
0 0 0 -0 0 -0 -0 -0 0 -0 0 0 0 0 0 0 0 0 0 0 0 0 0 0 0 0 0 0 0 0 0 0 0 0 0 0 0 0 0 0 0 0 0 0
0 0 0 0 -0 -0 -0 0 0 0 0 0 0 0 0 0 0 0 0 0 0 0 0 0 0 0 0 0 0 0 0 0 0 0 0 0 0 0 0 0 0 0 0 0
-0 -0 0 -0 0 0 -0 -0 -0 -0 -0 -0 0 0 0 0 0 0 0 0 0 0 0 0 0 0 0 0 0 0 0 0 0 0 0 0 0 0 0 0 0 0 0 0
0 0 0 0 0 0 -0 -0 -0 -0 0 0 0 0 0 0 0 0 0 0 0 0 0 0 0 0 0 0 0 0 0 0 0 0 0 0 0 0 0 0 -0 -0 -0 0
0 0 -0 -0 -0 -0 -0 0 0 0 0 0 0 0 0 -0 0 0 0 0 0 0 0 0 0 0 0 -0 0 0 0 0 -0 0 0 0 0 0 0 0 -0 -0 -0 0
-0 -0 -0 0 0 0 0 0 -0 0 0 0 0 0 -0 0 0 0 0 0 0 0 0 0 0 0 0 0 0 0 0 -0 -0 0 0 0 0 0 -0 -0 -0 -0 -0 -0
-0 -0 0 0 0 0 0 0 0 0 0 0 0 0 -0 -0 0 0 0 0 0 0 0 -0 -0 0 0 -0 0 0 0 -0 0 0 0 0 0 0 -0 0 -0 -0 -0 -0
-0 0 0 0 0 0 0 0 0 0 0 0 0 0 -0 -0 0 0 0 0 0 0 0 0 0 0 0 0 -0 0 -0 -0 -0 0 0 0 0 0 0 0 -0 -0 -0 0
-0 0 0 0 0 0 0 0 0 0 0 0 0 0 0 0 0 0 0 0 0 0 0 0 0 0 0 -0 -0 0 0 -0 -0 0 0 0 0 0 0 -0 -0 -0 -0 -0
0 0 0 0 0 0 0 0 0 0 0 0 0 0 0 0 0 0 0 0 0 0 0 0 0 0 0 -0 0 0 0 0 0 0 0 0 0 0 0 0 -0 -0 -0 -0
0 0 0 0 0 0 0 0 0 0 0 0 0 0 0 0 0 0 0 0 0 0 0 0 -0 0 0 -0 0 0 0 0 0 0 0 0 0 0 0 0 0 -0 -0 -0
-0 -0 -0 -0 -0 -0 0 0 0 0 0 0 0 0 0 0 0 0 -0 0 0 -0 -0 0 0 0 0 0 0 0 0 0 0 0 0 0 0 0 0 0 0 0 -0 -0
-0 -0 -0 -0 0 0 0 0 0 0 0 0 0 0 0 0 0 0 0 0 0 0 -0 0 -0 -0 -0 -0 0 0 0 0 0 0 0 0 0 0 0 0 0 0 0 -0
0 0 0 0 0 0 0 0 0 0 0 0 0 0 0 0 -0 0 0 -0 -0 0 0 0 -0 -0 -0 -0 -0 0 0 0 0 0 0 0 0 0 0 0 0 0 0 0
0 0 0 0 0 0 0 0 0 0 0 -0 -0 -0 -0 -0 -0 -0 -0 0 -0 -0 -0 0 0 -0 -0 -0 -0 -0 0 0 0 0 0 0 0 0 0 0 0 0 0 0
0 0 -0 -0 -0 -0 0 -0 -0 -0 0 -0 -0 -0 -0 -0 -0 -0 0 0 0 -0 0 0 0 0 -0 -0 -0 -0 0 0 0 0 0 0 0 0 0 0 0 0 0 0
-0 0 -0 -0 -0 -0 -0 -0 0 0 -0 -0 -0 0 -0 -0 -0 -0 0 0 -0 0 0 -0 -0 -0 -0 -0 -0 -0 -0 -0 0 -0 0 0 0 0 0 0 0 0 0 0
-0 -0 -0 -0 -0 -0 -0 -0 -0 0 0 0 -0 -0 -0 0 0 -0 0 -0 -0 -0 -0 -0 0 0 -0 -0 -0 -0 -0 -0 -0 -0 -0 -0 -0 0 0 0 0 0 0 0
-0 -0 -0 -0 0 0 0 0 0 0 0 0 0 -0 -0 -0 0 -0 -0 0 0 0 0 -0 0 0 0 -0 -0 -0 -0 -0 -0 -0 -0 -0 0 -0 0 0 0 0 0 0
Wind_Speed_500mb
5 17 14 5 14 21 12 12 10 23 33 24 21 35 21 33 16 60 58 48 41 36 30 24 17 16 15 13 15 18 17 15 17 18 18 25 34 42 48 47 48 50 53 55
6 12 11 6 16 16 21 5 17 21 22 20 40 53 42 31 41 54 47 49 41 32 24 16 10 11 16 18 21 22 19 18 16 19 26 36 42 42 43 47 52 49 48 43
3 10 14 8 7 13 28 27 22 25 18 28 33 30 42 35 38 47 47 43 37 29 18 13 15 16 17 20 23 21 17 17 20 26 29 31 31 36 44 46 43 42 42 44
15 31 11 3 17 17 22 28 33 35 42 42 50 60 63 55 49 48 41 35 28 17 14 13 16 19 20 27 31 27 19 21 25 30 29 24 33 38 39 37 44 49 57 55
9 5 16 25 30 35 32 31 22 51 47 59 62 68 55 48 43 41 34 25 18 13 9 14 20 23 28 32 31 24 22 26 28 22 26 32 33 32 34 45 50 57 59 51
18 11 6 7 35 49 24 24 25 40 29 41 40 22 13 43 33 28 21 14 10 9 14 21 29 33 34 30 24 25 27 26 18 28 30 34 30 30 41 48 57 59 55 50
11 9 4 11 22 34 15 9 38 50 51 54 31 34 44 35 30 19 12 13 16 17 20 27 32 32 34 31 26 21 16 17 19 24 30 26 23 32 42 51 47 49 52 55
1 10 2 18 22 14 20 53 58 59 58 62 56 46 37 25 21 18 22 24 25 24 21 27 34 34 25 21 20 19 17 16 19 21 26 16 24 33 40 41 46 54 57 63
8 14 33 70 55 63 71 65 60 65 54 52 48 37 26 26 23 23 23 24 25 27 28 27 26 26 22 20 20 21 19 16 17 22 10 9 21 33 36 40 49 53 60 68
16 27 35 64 69 72 71 68 60 52 48 42 41 31 30 27 26 26 27 27 28 29 30 30 27 23 21 25 26 24 21 19 18 22 12 6 18 32 34 41 46 55 63 66
39 38 56 55 63 70 68 63 61 50 45 39 36 34 32 33 34 33 34 32 31 33 34 32 30 27 27 29 32 29 19 15 16 17 5 10 20 32 29 30 44 47 53 65
15 25 47 44 55 56 60 57 52 49 45 34 32 30 31 34 32 35 36 39 39 41 39 34 34 37 35 35 37 39 24 16 15 14 2 11 20 20 15 27 33 40 53 62
43 58 70 64 60 55 58 55 50 42 38 37 29 28 31 32 29 28 31 34 39 40 40 35 38 39 38 34 34 46 24 19 15 10 10 9 16 24 34 23 29 41 46 53
70 76 61 57 57 54 51 48 40 37 32 29 25 24 29 30 29 30 29 29 34 35 36 36 39 39 36 33 36 46 27 25 19 13 14 7 11 16 17 25 33 37 37 45
51 61 65 55 50 48 46 45 43 34 23 23 18 20 23 24 25 27 26 27 31 33 37 36 37 35 32 30 35 42 37 34 32 21 14 13 15 17 17 17 22 26 27 29
66 59 53 48 45 44 43 37 35 27 17 14 15 16 18 19 20 22 22 24 35 39 38 38 37 33 28 29 36 37 33 36 45 39 26 17 16 18 22 18 22 24 27 30
57 48 46 42 51 52 47 37 28 18 13 14 16 15 16 17 18 25 28 25 27 33 32 38 36 33 25 25 33 35 33 33 36 45 45 37 33 31 28 26 30 30 29 30
43 42 47 49 47 46 39 29 20 14 13 14 15 16 20 22 21 24 30 24 25 32 31 37 34 36 30 26 29 31 34 33 33 37 42 45 47 46 42 36 34 33 34 33
37 50 45 43 44 46 37 27 17 11 13 16 16 23 24 22 20 22 26 32 34 36 36 40 32 37 41 28 30 33 33 34 35 37 39 40 41 45 50 50 49 45 41 36
44 47 48 43 34 26 24 15 13 14 16 18 19 21 27 28 15 18 28 43 46 35 31 37 41 40 41 42 37 40 42 42 41 36 37 41 42 43 43 47 50 50 51 48
48 45 41 42 42 34 27 17 13 17 21 21 21 22 23 26 31 25 33 42 49 34 34 35 40 49 43 41 42 42 42 43 47 45 46 46 47 42 43 44 45 47 49 50
40 41 42 41 38 35 27 22 15 14 20 23 23 21 16 20 25 32 36 36 41 39 30 34 35 38 46 41 43 42 42 42 43 44 47 46 46 47 49 49 48 45 46 48
39 40 41 37 33 31 17 9 13 14 18 26 28 23 25 23 27 32 32 29 31 42 37 31 33 33 36 39 43 44 43 44 43 44 44 44 44 45 46 47 49 50 50 51
48 40 36 31 24 15 15 13 18 19 16 22 28 31 34 22 29 34 34 28 24 28 40 32 30 30 32 32 36 39 43 44 43 41 40 41 44 46 47 48 48 49 50 52
37 33 33 25 19 15 17 18 17 19 17 17 18 20 27 30 22 26 28 30 26 17 28 28 28 31 34 35 32 36 39 41 41 40 41 43 44 46 46 47 49 51 52 53
30 29 21 16 12 10 17 19 19 24 20 16 12 11 15 24 28 14 19 24 21 18 22 26 18 21 29 33 35 34 35 39 44 41 41 43 45 47 49 49 50 51 51 53
18 18 25 21 13 17 20 23 27 23 17 13 16 10 9 13 18 24 11 10 13 10 10 18 18 16 14 23 29 28 31 36 43 46 45 46 48 50 53 54 53 53 54 55
Wind_Direction_500mb
193 22 344 27 176 123 119 147 142 165 156 173 158 118 85 46 192 117 113 103 98 91 89 86 78 41 26 359 335 333 337 343 343 337 297 288 291 300 305 311 316 318 316 316
116 39 346 356 14 135 123 66 6 151 128 159 133 125 134 131 94 84 82 84 84 84 80 64 35 2 355 340 326 333 350 352 333 305 300 301 309 318 322 326 329 330 332 332
207 122 338 312 78 9 90 111 196 99 111 137 115 99 97 119 112 90 80 82 80 73 62 32 4 337 320 311 312 325 334 326 306 295 299 308 317 320 324 338 341 342 336 333
136 156 155 217 86 56 65 114 108 104 102 101 101 91 80 81 82 76 77 76 72 62 30 345 313 295 293 299 310 314 309 301 293 301 315 325 318 322 336 337 339 338 334 327
101 73 125 120 147 112 98 53 86 116 111 106 98 85 75 84 82 80 74 67 59 41 0 316 300 303 308 311 314 316 298 302 304 320 331 322 330 342 346 338 335 333 335 333
154 111 98 41 140 126 93 67 50 80 111 127 102 85 73 83 81 75 64 41 15 4 310 305 305 312 316 317 316 309 312 314 338 341 335 336 341 351 344 340 335 337 338 338
57 97 7 339 88 170 69 147 94 84 83 86 81 92 91 88 76 69 47 356 340 329 332 325 320 329 326 320 316 319 328 341 348 342 335 346 2 349 345 346 341 350 351 349
197 91 77 336 30 89 119 84 85 82 81 82 81 80 78 72 51 16 4 355 356 354 347 326 321 322 333 347 343 334 336 338 340 332 340 17 359 355 350 349 1 360 359 358
77 91 80 80 93 96 94 86 85 89 89 91 84 76 64 51 38 24 13 3 353 348 341 345 351 355 356 343 330 325 323 322 327 327 350 19 355 347 356 9 9 6 3 3
85 80 85 87 89 92 96 95 95 94 95 91 85 69 60 53 44 33 22 19 5 7 10 5 7 2 352 343 339 330 322 317 322 337 353 2 10 4 3 16 7 358 358 356
99 99 89 92 99 103 101 99 96 92 88 85 81 75 68 58 49 42 37 30 28 26 22 19 20 15 12 13 6 353 339 326 331 338 30 20 21 8 7 17 3 2 3 358
125 111 114 111 111 109 105 106 104 101 94 88 85 82 70 66 56 51 47 41 40 36 34 35 32 31 21 24 12 4 354 353 345 345 303 5 10 15 52 19 14 24 16 9
114 113 108 108 104 106 103 102 101 100 96 95 81 78 73 65 58 54 45 37 37 34 34 33 30 27 23 19 10 4 9 6 360 349 325 343 10 11 6 5 17 26 18 17
117 115 105 106 105 111 110 107 103 99 94 88 86 78 75 72 63 56 50 39 33 31 32 31 31 30 31 28 22 16 23 22 20 4 351 329 345 8 357 358 357 8 15 16
109 111 113 114 116 117 112 107 99 94 87 86 76 73 71 69 60 54 55 39 31 33 34 34 33 34 34 34 30 27 34 40 31 19 2 340 316 309 320 324 345 356 358 7
116 117 119 125 129 123 116 109 104 101 96 86 74 70 72 75 63 45 49 39 28 31 32 34 31 37 35 35 38 33 40 35 36 31 27 16 7 356 358 347 340 343 351 356
128 132 138 131 111 106 101 105 105 104 94 81 71 68 69 74 65 40 38 40 34 32 35 34 29 34 42 34 43 36 39 45 39 37 39 37 34 26 17 7 5 6 5 358
133 134 127 120 114 111 105 105 104 99 83 69 66 74 80 77 68 39 34 44 45 39 46 39 34 37 45 47 53 45 44 45 45 46 42 41 40 37 34 30 24 18 14 6
124 118 113 114 121 118 116 106 94 77 77 73 81 79 77 80 72 50 44 54 51 49 52 45 40 43 42 52 58 53 52 54 53 50 47 42 40 37 35 34 35 31 28 20
117 113 111 108 115 119 114 98 101 95 76 77 88 92 84 68 72 58 63 58 48 50 51 50 42 47 45 47 55 57 55 55 52 50 47 40 38 36 34 32 30 31 30 29
111 109 111 112 113 107 103 99 67 61 78 81 82 83 84 71 62 91 78 63 49 54 54 52 47 42 39 42 47 55 55 52 48 45 43 39 36 33 33 32 29 27 25 23
120 122 118 114 113 113 112 104 73 59 62 65 75 73 82 85 76 79 71 66 55 53 60 52 43 40 32 37 41 48 52 51 48 42 37 35 34 28 29 26 23 23 22 19
135 130 125 122 124 124 122 81 113 108 67 60 61 66 70 93 100 86 73 64 58 47 47 58 48 37 26 32 35 39 46 48 44 41 34 30 27 26 23 21 18 17 16 14
131 127 122 128 128 122 120 110 92 92 76 54 55 57 54 85 98 91 77 57 43 40 36 47 40 31 28 28 29 32 39 40 40 39 34 29 26 22 21 18 14 13 13 10
118 122 135 134 122 124 148 145 129 131 113 80 64 53 45 58 88 98 84 69 47 56 20 31 43 22 23 26 26 31 34 31 31 30 27 25 22 18 16 14 10 8 6 4
126 134 133 120 113 123 152 143 149 145 135 109 87 43 41 41 54 99 104 91 82 63 20 14 36 37 16 11 17 24 24 22 20 22 19 17 15 14 11 8 5 3 1 359
126 132 139 144 150 113 126 131 129 116 136 110 101 109 54 40 28 34 69 105 102 86 27 6 14 22 10 1 12 16 20 14 13 11 11 10 8 5 3 2 1 360 357 354
Wind_Speed_850mb
5 17 14 5 14 21 12 12 10 23 33 24 21 35 21 33 16 60 58 48 41 36 30 24 17 16 15 13 15 18 17 15 17 18 18 25 34 42 48 47 48 50 53 55
6 12 11 6 16 16 21 5 17 21 22 20 40 53 42 31 41 54 47 49 41 32 24 16 10 11 16 18 21 22 19 18 16 19 26 36 42 42 43 47 52 49 48 43
3 10 14 8 7 13 28 27 22 25 18 28 33 30 42 35 38 47 47 43 37 29 18 13 15 16 17 20 23 21 17 17 20 26 29 31 31 36 44 46 43 42 42 44
15 31 11 3 17 17 22 28 33 35 42 42 50 60 63 55 49 48 41 35 28 17 14 13 16 19 20 27 31 27 19 21 25 30 29 24 33 38 39 37 44 49 57 55
9 5 16 25 30 35 32 31 22 51 47 59 62 68 55 48 43 41 34 25 18 13 9 14 20 23 28 32 31 24 22 26 28 22 26 32 33 32 34 45 50 57 59 51
18 11 6 7 35 49 24 24 25 40 29 41 40 22 13 43 33 28 21 14 10 9 14 21 29 33 34 30 24 25 27 26 18 28 30 34 30 30 41 48 57 59 55 50
11 9 4 11 22 34 15 9 38 50 51 54 31 34 44 35 30 19 12 13 16 17 20 27 32 32 34 31 26 21 16 17 19 24 30 26 23 32 42 51 47 49 52 55
1 10 2 18 22 14 20 53 58 59 58 62 56 46 37 25 21 18 22 24 25 24 21 27 34 34 25 21 20 19 17 16 19 21 26 16 24 33 40 41 46 54 57 63
8 14 33 70 55 63 71 65 60 65 54 52 48 37 26 26 23 23 23 24 25 27 28 27 26 26 22 20 20 21 19 16 17 22 10 9 21 33 36 40 49 53 60 68
16 27 35 64 69 72 71 68 60 52 48 42 41 31 30 27 26 26 27 27 28 29 30 30 27 23 21 25 26 24 21 19 18 22 12 6 18 32 34 41 46 55 63 66
39 38 56 55 63 70 68 63 61 50 45 39 36 34 32 33 34 33 34 32 31 33 34 32 30 27 27 29 32 29 19 15 16 17 5 10 20 32 29 30 44 47 53 65
15 25 47 44 55 56 60 57 52 49 45 34 32 30 31 34 32 35 36 39 39 41 39 34 34 37 35 35 37 39 24 16 15 14 2 11 20 20 15 27 33 40 53 62
43 58 70 64 60 55 58 55 50 42 38 37 29 28 31 32 29 28 31 34 39 40 40 35 38 39 38 34 34 46 24 19 15 10 10 9 16 24 34 23 29 41 46 53
70 76 61 57 57 54 51 48 40 37 32 29 25 24 29 30 29 30 29 29 34 35 36 36 39 39 36 33 36 46 27 25 19 13 14 7 11 16 17 25 33 37 37 45
51 61 65 55 50 48 46 45 43 34 23 23 18 20 23 24 25 27 26 27 31 33 37 36 37 35 32 30 35 42 37 34 32 21 14 13 15 17 17 17 22 26 27 29
66 59 53 48 45 44 43 37 35 27 17 14 15 16 18 19 20 22 22 24 35 39 38 38 37 33 28 29 36 37 33 36 45 39 26 17 16 18 22 18 22 24 27 30
57 48 46 42 51 52 47 37 28 18 13 14 16 15 16 17 18 25 28 25 27 33 32 38 36 33 25 25 33 35 33 33 36 45 45 37 33 31 28 26 30 30 29 30
43 42 47 49 47 46 39 29 20 14 13 14 15 16 20 22 21 24 30 24 25 32 31 37 34 36 30 26 29 31 34 33 33 37 42 45 47 46 42 36 34 33 34 33
37 50 45 43 44 46 37 27 17 11 13 16 16 23 24 22 20 22 26 32 34 36 36 40 32 37 41 28 30 33 33 34 35 37 39 40 41 45 50 50 49 45 41 36
44 47 48 43 34 26 24 15 13 14 16 18 19 21 27 28 15 18 28 43 46 35 31 37 41 40 41 42 37 40 42 42 41 36 37 41 42 43 43 47 50 50 51 48
48 45 41 42 42 34 27 17 13 17 21 21 21 22 23 26 31 25 33 42 49 34 34 35 40 49 43 41 42 42 42 43 47 45 46 46 47 42 43 44 45 47 49 50
40 41 42 41 38 35 27 22 15 14 20 23 23 21 16 20 25 32 36 36 41 39 30 34 35 38 46 41 43 42 42 42 43 44 47 46 46 47 49 49 48 45 46 48
39 40 41 37 33 31 17 9 13 14 18 26 28 23 25 23 27 32 32 29 31 42 37 31 33 33 36 39 43 44 43 44 43 44 44 44 44 45 46 47 49 50 50 51
48 40 36 31 24 15 15 13 18 19 16 22 28 31 34 22 29 34 34 28 24 28 40 32 30 30 32 32 36 39 43 44 43 41 40 41 44 46 47 48 48 49 50 52
37 33 33 25 19 15 17 18 17 19 17 17 18 20 27 30 22 26 28 30 26 17 28 28 28 31 34 35 32 36 39 41 41 40 41 43 44 46 46 47 49 51 52 53
30 29 21 16 12 10 17 19 19 24 20 16 12 11 15 24 28 14 19 24 21 18 22 26 18 21 29 33 35 34 35 39 44 41 41 43 45 47 49 49 50 51 51 53
18 18 25 21 13 17 20 23 27 23 17 13 16 10 9 13 18 24 11 10 13 10 10 18 18 16 14 23 29 28 31 36 43 46 45 46 48 50 53 54 53 53 54 55
Wind_Direction_850mb
193 22 344 27 176 123 119 147 142 165 156 173 158 118 85 46 192 117 113 103 98 91 89 86 78 41 26 359 335 333 337 343 343 337 297 288 291 300 305 311 316 318 316 316
116 39 346 356 14 135 123 66 6 151 128 159 133 125 134 131 94 84 82 84 84 84 80 64 35 2 355 340 326 333 350 352 333 305 300 301 309 318 322 326 329 330 332 332
207 122 338 312 78 9 90 111 196 99 111 137 115 99 97 119 112 90 80 82 80 73 62 32 4 337 320 311 312 325 334 326 306 295 299 308 317 320 324 338 341 342 336 333
136 156 155 217 86 56 65 114 108 104 102 101 101 91 80 81 82 76 77 76 72 62 30 345 313 295 293 299 310 314 309 301 293 301 315 325 318 322 336 337 339 338 334 327
101 73 125 120 147 112 98 53 86 116 111 106 98 85 75 84 82 80 74 67 59 41 0 316 300 303 308 311 314 316 298 302 304 320 331 322 330 342 346 338 335 333 335 333
154 111 98 41 140 126 93 67 50 80 111 127 102 85 73 83 81 75 64 41 15 4 310 305 305 312 316 317 316 309 312 314 338 341 335 336 341 351 344 340 335 337 338 338
57 97 7 339 88 170 69 147 94 84 83 86 81 92 91 88 76 69 47 356 340 329 332 325 320 329 326 320 316 319 328 341 348 342 335 346 2 349 345 346 341 350 351 349
197 91 77 336 30 89 119 84 85 82 81 82 81 80 78 72 51 16 4 355 356 354 347 326 321 322 333 347 343 334 336 338 340 332 340 17 359 355 350 349 1 360 359 358
77 91 80 80 93 96 94 86 85 89 89 91 84 76 64 51 38 24 13 3 353 348 341 345 351 355 356 343 330 325 323 322 327 327 350 19 355 347 356 9 9 6 3 3
85 80 85 87 89 92 96 95 95 94 95 91 85 69 60 53 44 33 22 19 5 7 10 5 7 2 352 343 339 330 322 317 322 337 353 2 10 4 3 16 7 358 358 356
99 99 89 92 99 103 101 99 96 92 88 85 81 75 68 58 49 42 37 30 28 26 22 19 20 15 12 13 6 353 339 326 331 338 30 20 21 8 7 17 3 2 3 358
125 111 114 111 111 109 105 106 104 101 94 88 85 82 70 66 56 51 47 41 40 36 34 35 32 31 21 24 12 4 354 353 345 345 303 5 10 15 52 19 14 24 16 9
114 113 108 108 104 106 103 102 101 100 96 95 81 78 73 65 58 54 45 37 37 34 34 33 30 27 23 19 10 4 9 6 360 349 325 343 10 11 6 5 17 26 18 17
117 115 105 106 105 111 110 107 103 99 94 88 86 78 75 72 63 56 50 39 33 31 32 31 31 30 31 28 22 16 23 22 20 4 351 329 345 8 357 358 357 8 15 16
109 111 113 114 116 117 112 107 99 94 87 86 76 73 71 69 60 54 55 39 31 33 34 34 33 34 34 34 30 27 34 40 31 19 2 340 316 309 320 324 345 356 358 7
116 117 119 125 129 123 116 109 104 101 96 86 74 70 72 75 63 45 49 39 28 31 32 34 31 37 35 35 38 33 40 35 36 31 27 16 7 356 358 347 340 343 351 356
128 132 138 131 111 106 101 105 105 104 94 81 71 68 69 74 65 40 38 40 34 32 35 34 29 34 42 34 43 36 39 45 39 37 39 37 34 26 17 7 5 6 5 358
133 134 127 120 114 111 105 105 104 99 83 69 66 74 80 77 68 39 34 44 45 39 46 39 34 37 45 47 53 45 44 45 45 46 42 41 40 37 34 30 24 18 14 6
124 118 113 114 121 118 116 106 94 77 77 73 81 79 77 80 72 50 44 54 51 49 52 45 40 43 42 52 58 53 52 54 53 50 47 42 40 37 35 34 35 31 28 20
117 113 111 108 115 119 114 98 101 95 76 77 88 92 84 68 72 58 63 58 48 50 51 50 42 47 45 47 55 57 55 55 52 50 47 40 38 36 34 32 30 31 30 29
111 109 111 112 113 107 103 99 67 61 78 81 82 83 84 71 62 91 78 63 49 54 54 52 47 42 39 42 47 55 55 52 48 45 43 39 36 33 33 32 29 27 25 23
120 122 118 114 113 113 112 104 73 59 62 65 75 73 82 85 76 79 71 66 55 53 60 52 43 40 32 37 41 48 52 51 48 42 37 35 34 28 29 26 23 23 22 19
135 130 125 122 124 124 122 81 113 108 67 60 61 66 70 93 100 86 73 64 58 47 47 58 48 37 26 32 35 39 46 48 44 41 34 30 27 26 23 21 18 17 16 14
131 127 122 128 128 122 120 110 92 92 76 54 55 57 54 85 98 91 77 57 43 40 36 47 40 31 28 28 29 32 39 40 40 39 34 29 26 22 21 18 14 13 13 10
118 122 135 134 122 124 148 145 129 131 113 80 64 53 45 58 88 98 84 69 47 56 20 31 43 22 23 26 26 31 34 31 31 30 27 25 22 18 16 14 10 8 6 4
126 134 133 120 113 123 152 143 149 145 135 109 87 43 41 41 54 99 104 91 82 63 20 14 36 37 16 11 17 24 24 22 20 22 19 17 15 14 11 8 5 3 1 359
126 132 139 144 150 113 126 131 129 116 136 110 101 109 54 40 28 34 69 105 102 86 27 6 14 22 10 1 12 16 20 14 13 11 11 10 8 5 3 2 1 360 357 354